DW7980 Weather Reports


Display with metric or nautical units.
time (UTC)temp
F
wind
direction
speed
MPH
gust
MPH
rain 1hr
in
rain 24hr
in
rain mn
in
humidity
%
barometer
mb
20260903082038 54 0 0.0 2.0 0.01 0.63 0.02 91 1010.4
20260903081604 54 0 0.0 1.0 0.01 0.63 0.02 91 1010.6
20260903081039 54 0 0.0 1.0 0.01 0.63 0.02 91 1010.6
20260903080538 54 0 0.0 2.0 0.00 0.62 0.01 91 1010.6
20260903075538 54 0 0.0 3.0 0.01 0.62 0.01 91 1010.6
20260903075038 54 0 0.0 3.0 0.01 0.62 0.01 91 1010.5
20260903074555 54 233 0.0 2.0 0.01 0.62 0.01 91 1010.6
20260903074038 54 0 0.0 4.0 0.01 0.62 0.01 91 1010.5
20260903073539 54 0 0.0 4.0 0.01 0.62 0.01 91 1010.5
20260903073054 54 237 0.0 4.0 0.02 0.62 0.01 91 1010.4
20260903072538 54 246 1.0 3.0 0.02 0.62 0.01 91 1010.4
20260903072039 54 0 0.0 3.0 0.02 0.62 0.01 91 1010.5
20260903071614 54 180 0.0 5.0 0.04 0.62 0.01 91 1010.6
20260903071038 54 174 0.0 5.0 0.07 0.62 0.01 91 1010.5
20260903070538 54 171 1.0 4.0 0.07 0.62 0.01 91 1010.5
20260903070103 54 0 0.0 5.0 0.06 0.61 0.00 91 1010.6
20260903065543 54 0 1.0 5.0 0.06 0.61 0.61 91 1010.6
20260903065038 54 219 2.0 5.0 0.06 0.61 0.61 91 1010.6
20260903064558 54 229 1.0 5.0 0.06 0.61 0.61 91 1010.8
20260903064040 54 246 2.0 5.0 0.06 0.61 0.61 91 1010.6
20260903063539 54 191 1.0 5.0 0.06 0.61 0.61 91 1010.6
20260903063054 54 209 1.0 8.0 0.05 0.60 0.60 91 1010.7
20260903062539 54 228 1.0 8.0 0.05 0.60 0.60 91 1010.7
20260903062044 54 229 1.0 5.0 0.05 0.60 0.60 91 1010.7
20260903061554 54 178 2.0 5.0 0.02 0.57 0.57 91 1010.7
20260903061041 54 227 1.0 5.0 0.00 0.55 0.55 91 1010.6
20260903060540 54 221 1.0 5.0 0.00 0.55 0.55 91 1010.5
20260903060104 54 0 0.0 0.0 0.00 0.55 0.55 91 1010.5
20260903055537 54 0 0.0 0.0 0.00 0.55 0.55 91 1010.6
20260903055042 54 0 0.0 0.0 0.00 0.55 0.55 91 1010.5
20260903054557 54 0 0.0 2.0 0.00 0.55 0.55 91 1010.6
20260903054040 54 0 0.0 2.0 0.00 0.55 0.55 91 1010.6
20260903053539 54 0 0.0 3.0 0.00 0.55 0.55 91 1010.6
20260903053052 54 219 0.0 3.0 0.00 0.55 0.55 91 1010.6
20260903052542 54 0 0.0 3.0 0.00 0.55 0.55 91 1010.6
20260903052040 54 216 0.0 2.0 0.00 0.55 0.55 91 1010.6
20260903051616 54 0 0.0 3.0 0.00 0.55 0.55 91 1010.4
20260903051039 54 216 0.0 3.0 0.00 0.55 0.55 91 1010.6
20260903050540 54 0 1.0 3.0 0.00 0.55 0.55 91 1010.4
20260903045539 54 0 0.0 2.0 0.00 0.55 0.55 91 1010.4
20260903045037 54 0 0.0 3.0 0.00 0.55 0.55 91 1010.5
20260903044554 54 0 0.0 3.0 0.00 0.55 0.55 91 1010.4
20260903044041 54 0 0.0 2.0 0.00 0.55 0.55 91 1010.3
20260903043538 55 0 0.0 2.0 0.00 0.55 0.55 91 1010.3
20260903043207 55 0 0.0 2.0 0.00 0.55 0.55 91 1010.2
20260903042540 55 0 0.0 2.0 0.00 0.55 0.55 91 1010.2
20260903042038 55 0 0.0 2.0 0.00 0.55 0.55 91 1010.2
20260903041605 55 0 0.0 2.0 0.00 0.55 0.55 91 1010.1
20260903041041 55 0 0.0 0.0 0.00 0.55 0.55 91 1010.0
20260903040539 55 0 0.0 2.0 0.01 0.55 0.55 91 1010.0
20260903040058 55 0 0.0 2.0 0.01 0.55 0.55 91 1010.0
20260903035538 55 0 0.0 2.0 0.01 0.55 0.55 91 1009.9
20260903035038 55 227 0.0 3.0 0.01 0.55 0.55 91 1009.9
20260903034551 56 0 0.0 3.0 0.01 0.55 0.55 91 1009.8
20260903034041 56 0 0.0 3.0 0.01 0.55 0.55 91 1009.7
20260903033538 56 217 0.0 3.0 0.01 0.55 0.55 91 1009.6
20260903033100 56 219 0.0 2.0 0.01 0.55 0.55 91 1009.4
20260903032540 56 0 0.0 3.0 0.01 0.55 0.55 91 1009.4
20260903032039 56 0 0.0 3.0 0.01 0.55 0.55 91 1009.4
20260903031559 56 191 0.0 7.0 0.01 0.55 0.55 91 1009.4
20260903031038 56 0 0.0 7.0 0.01 0.55 0.55 91 1009.3
20260903030540 56 178 0.0 7.0 0.00 0.54 0.54 91 1009.3
20260903030103 56 204 2.0 7.0 0.00 0.54 0.54 91 1009.4
20260903025541 57 0 0.0 3.0 0.00 0.54 0.54 91 1009.4
20260903025040 57 226 1.0 2.0 0.00 0.54 0.54 91 1009.2
20260903024606 57 0 0.0 2.0 0.00 0.54 0.54 91 1009.1
20260903024039 57 226 0.0 5.0 0.00 0.54 0.54 91 1009.0
20260903023540 57 226 0.0 6.0 0.00 0.54 0.54 91 1009.0
20260903023105 57 196 0.0 6.0 0.00 0.54 0.54 91 1009.0
20260903022538 57 0 0.0 5.0 0.00 0.54 0.54 91 1009.0
20260903022038 57 274 1.0 5.0 0.00 0.54 0.54 91 1009.0
20260903021555 57 184 1.0 3.0 0.00 0.54 0.54 91 1009.1
20260903021039 57 196 1.0 3.0 0.00 0.54 0.54 91 1009.0
20260903020539 57 0 1.0 4.0 0.00 0.54 0.54 91 1008.9
20260903020056 57 188 0.0 4.0 0.00 0.54 0.54 91 1008.7
20260903015539 57 206 1.0 5.0 0.00 0.54 0.54 91 1008.6
20260903015037 57 148 1.0 5.0 0.00 0.54 0.54 91 1008.7
20260903014557 57 200 1.0 4.0 0.00 0.54 0.54 91 1008.7
20260903014039 57 0 0.0 3.0 0.00 0.54 0.54 91 1008.5
20260903013541 57 229 0.0 4.0 0.00 0.54 0.54 91 1008.6
20260903013109 57 220 1.0 5.0 0.01 0.54 0.54 91 1008.6
20260903012540 57 220 1.0 5.0 0.01 0.54 0.54 91 1008.5
20260903012038 58 226 1.0 4.0 0.01 0.54 0.54 91 1008.5
20260903011555 58 190 0.0 4.0 0.01 0.54 0.54 91 1008.3
20260903011038 58 236 0.0 5.0 0.02 0.54 0.54 91 1008.3
20260903010540 57 221 1.0 5.0 0.02 0.54 0.54 91 1008.2
20260903010056 57 0 0.0 5.0 0.02 0.54 0.54 91 1008.2
20260903005539 57 0 1.0 5.0 0.03 0.54 0.54 91 1008.0
20260903005038 57 200 1.0 5.0 0.05 0.54 0.54 91 1008.1
20260903004606 57 190 2.0 5.0 0.07 0.54 0.54 91 1008.1
20260903004043 57 0 1.0 3.0 0.12 0.54 0.54 91 1007.9
20260903003538 57 224 1.0 3.0 0.18 0.54 0.54 90 1007.9
20260903003100 57 188 1.0 3.0 0.18 0.52 0.52 90 1007.8
20260903002538 57 188 1.0 2.0 0.18 0.52 0.52 90 1008.0
20260903002040 57 0 0.0 0.0 0.18 0.52 0.52 90 1007.9
20260903001558 57 0 0.0 0.0 0.18 0.52 0.52 90 1007.9
20260903001037 57 0 0.0 1.0 0.17 0.52 0.52 90 1007.8
20260903000537 57 0 0.0 3.0 0.17 0.52 0.52 90 1007.8
20260903000054 57 183 0.0 3.0 0.17 0.52 0.52 90 1007.8
20260902235539 57 183 0.0 4.0 0.16 0.51 0.51 90 1007.7
20260902235038 57 0 1.0 4.0 0.14 0.49 0.49 89 1007.7
20260902234610 58 172 0.0 4.0 0.12 0.47 0.47 89 1007.7
20260902234040 58 205 1.0 9.0 0.06 0.41 0.41 89 1007.8
20260902233538 58 230 3.0 9.0 0.01 0.36 0.36 89 1007.6
20260902233101 58 0 2.0 5.0 0.00 0.35 0.35 89 1007.5
20260902232538 58 224 1.0 10.0 0.00 0.35 0.35 89 1007.4
20260902232038 58 230 2.0 10.0 0.00 0.35 0.35 89 1007.5
20260902231553 58 192 2.0 11.0 0.00 0.35 0.35 89 1007.5
20260902231038 58 201 1.0 11.0 0.00 0.35 0.35 89 1007.4
20260902230537 58 211 2.0 8.0 0.00 0.35 0.35 89 1007.4
20260902225537 58 171 3.0 8.0 0.00 0.35 0.35 88 1007.3
20260902225041 58 215 2.0 7.0 0.00 0.35 0.35 89 1007.3
20260902224608 58 230 1.0 11.0 0.00 0.35 0.35 89 1007.2
20260902224038 58 247 2.0 11.0 0.00 0.35 0.35 89 1007.3
20260902223541 58 0 3.0 10.0 0.00 0.35 0.35 89 1007.3
20260902223059 58 234 1.0 9.0 0.00 0.35 0.35 89 1007.2
20260902222538 58 233 3.0 9.0 0.00 0.35 0.35 89 1007.3
20260902222039 58 186 2.0 6.0 0.00 0.35 0.35 89 1007.2
20260902221559 58 217 1.0 7.0 0.00 0.35 0.35 89 1007.3
20260902221038 58 0 1.0 7.0 0.01 0.35 0.35 89 1007.3
20260902220541 58 229 2.0 6.0 0.01 0.35 0.35 89 1007.2
20260902220058 58 231 1.0 7.0 0.01 0.35 0.35 90 1007.1
20260902215539 58 168 2.0 11.0 0.01 0.35 0.35 89 1007.2
20260902215038 58 220 2.0 11.0 0.01 0.35 0.35 90 1007.1
20260902214600 58 217 1.0 3.0 0.01 0.35 0.35 90 1007.2
20260902214039 58 227 0.0 3.0 0.01 0.35 0.35 90 1007.2
20260902213540 58 194 0.0 3.0 0.01 0.35 0.35 90 1007.2
20260902213051 58 0 0.0 0.0 0.02 0.35 0.35 90 1007.1
20260902212539 58 0 0.0 0.0 0.02 0.35 0.35 90 1007.1
20260902212038 58 0 0.0 0.0 0.03 0.35 0.35 90 1007.2
20260902211603 58 0 0.0 0.0 0.04 0.35 0.35 90 1007.2
20260902211038 58 0 0.0 0.0 0.04 0.34 0.34 90 1007.2
20260902210539 58 0 0.0 0.0 0.05 0.34 0.34 90 1007.1
20260902210059 58 0 0.0 0.0 0.07 0.34 0.34 90 1007.1
20260902205538 58 0 0.0 1.0 0.08 0.34 0.34 90 1007.1
20260902205040 58 0 0.0 1.0 0.09 0.34 0.34 90 1007.1
20260902204602 58 0 0.0 1.0 0.12 0.34 0.34 90 1007.1
20260902204038 58 0 0.0 3.0 0.14 0.34 0.34 90 1007.0
20260902203538 58 0 0.0 4.0 0.16 0.34 0.34 89 1006.9
20260902203108 58 0 1.0 4.0 0.17 0.33 0.33 90 1006.9
20260902202538 58 0 0.0 3.0 0.19 0.33 0.33 90 1006.8
20260902202039 58 0 0.0 7.0 0.19 0.32 0.32 89 1006.8
20260902201605 58 84 1.0 7.0 0.18 0.31 0.31 89 1006.7
20260902201042 58 0 1.0 7.0 0.18 0.30 0.30 89 1006.7
20260902200538 58 82 2.0 5.0 0.17 0.29 0.29 89 1006.9
20260902200133 58 74 1.0 4.0 0.16 0.27 0.27 89 1006.9
20260902195539 58 64 1.0 3.0 0.16 0.26 0.26 89 1007.1
20260902195039 58 0 0.0 2.0 0.14 0.24 0.24 89 1007.2
20260902194552 58 0 0.0 2.0 0.13 0.22 0.22 88 1007.2
20260902194040 58 0 0.0 3.0 0.11 0.20 0.20 88 1007.4
20260902193538 58 0 0.0 3.0 0.09 0.18 0.18 88 1007.3
20260902193101 58 0 0.0 1.0 0.07 0.16 0.16 88 1007.2
20260902192541 59 0 0.0 2.0 0.06 0.14 0.14 88 1007.3
20260902192038 59 0 0.0 3.0 0.05 0.13 0.13 88 1007.3
20260902191556 59 0 1.0 4.0 0.06 0.13 0.13 88 1007.2
20260902191038 59 76 0.0 4.0 0.06 0.12 0.12 88 1007.2
20260902190538 59 71 1.0 4.0 0.06 0.12 0.12 88 1007.1
20260902190116 59 0 0.0 3.0 0.06 0.11 0.11 87 1007.1
20260902185542 59 0 0.0 2.0 0.06 0.10 0.10 87 1007.2
20260902185042 59 0 0.0 0.0 0.07 0.10 0.10 88 1007.3
20260902184552 59 0 0.0 0.0 0.06 0.09 0.09 87 1007.4
20260902184038 59 0 0.0 0.0 0.07 0.09 0.09 87 1007.4
20260902183538 59 0 0.0 0.0 0.07 0.09 0.09 87 1007.5
20260902183116 59 0 0.0 0.0 0.08 0.09 0.09 87 1007.7
20260902182539 59 0 0.0 0.0 0.07 0.08 0.08 86 1007.7
20260902182041 59 0 0.0 0.0 0.08 0.08 0.08 86 1007.9
20260902181558 59 0 0.0 0.0 0.07 0.07 0.07 86 1007.9
20260902181038 59 0 0.0 0.0 0.06 0.06 0.06 85 1007.9
20260902180538 60 0 0.0 0.0 0.06 0.06 0.06 84 1008.0
20260902180054 60 0 0.0 0.0 0.05 0.05 0.05 84 1008.0
20260902175539 60 0 0.0 0.0 0.04 0.04 0.04 84 1007.9
20260902175040 61 0 0.0 0.0 0.03 0.03 0.03 83 1007.9
20260902174551 61 0 0.0 0.0 0.03 0.03 0.03 82 1007.7
20260902174038 61 0 0.0 0.0 0.02 0.02 0.02 81 1007.8
20260902173538 61 0 0.0 0.0 0.02 0.02 0.02 80 1007.6
20260902173055 62 0 0.0 0.0 0.01 0.01 0.01 80 1007.5
20260902172537 62 0 0.0 0.0 0.01 0.01 0.01 80 1007.4
20260902172039 63 0 0.0 0.0 0.00 0.00 0.00 79 1007.4
20260902171609 63 0 0.0 0.0 0.00 0.00 0.00 77 1007.3
20260902171043 64 0 0.0 0.0 0.00 0.00 0.00 76 1007.2
20260902170542 64 0 0.0 0.0 0.00 0.00 0.00 76 1007.1
20260902170056 64 0 0.0 0.0 0.00 0.00 0.00 75 1007.1
20260902165538 64 0 0.0 0.0 0.00 0.00 0.00 74 1007.1
20260902165038 64 0 0.0 0.0 0.00 0.00 0.00 73 1007.1
20260902164559 64 0 0.0 0.0 0.00 0.00 0.00 72 1007.1
20260902164040 64 0 0.0 0.0 0.00 0.00 0.00 73 1007.0
20260902163538 64 0 0.0 0.0 0.00 0.00 0.00 73 1007.0
20260902163054 64 0 0.0 0.0 0.00 0.00 0.00 73 1007.1
20260902162540 63 0 0.0 0.0 0.00 0.00 0.00 74 1007.2
20260902162040 63 0 0.0 0.0 0.00 0.00 0.00 73 1007.1
20260902161555 63 0 0.0 0.0 0.00 0.00 0.00 73 1007.1
20260902161042 63 0 0.0 0.0 0.00 0.00 0.00 73 1007.1
20260902160538 63 0 0.0 0.0 0.00 0.00 0.00 74 1007.2
20260902160106 62 0 0.0 0.0 0.00 0.00 0.00 74 1007.3
20260902155538 62 0 0.0 0.0 0.00 0.00 0.00 74 1007.3
20260902155039 62 0 0.0 0.0 0.00 0.00 0.00 75 1007.3
20260902154558 62 0 0.0 1.0 0.00 0.00 0.00 75 1007.3
20260902154040 61 0 0.0 2.0 0.00 0.00 0.00 75 1007.4
20260902153539 61 0 0.0 2.0 0.00 0.00 0.00 75 1007.5
20260902153054 61 151 0.0 2.0 0.00 0.00 0.00 75 1007.5
20260902152541 61 152 0.0 2.0 0.00 0.00 0.00 74 1007.5
20260902152040 61 151 0.0 2.0 0.00 0.00 0.00 75 1007.7
20260902151551 60 0 0.0 2.0 0.00 0.00 0.00 76 1007.7
20260902151039 60 0 0.0 3.0 0.00 0.00 0.00 76 1007.7
20260902150541 60 149 0.0 3.0 0.00 0.00 0.00 75 1007.7
20260902150052 60 143 0.0 2.0 0.00 0.00 0.00 76 1007.8
20260902145546 60 0 0.0 4.0 0.00 0.00 0.00 75 1007.8
20260902145038 60 142 0.0 4.0 0.00 0.00 0.00 75 1007.9
20260902144555 60 0 1.0 5.0 0.00 0.00 0.00 76 1007.9
20260902144039 60 0 1.0 5.0 0.00 0.00 0.00 76 1008.0
20260902143539 60 0 0.0 3.0 0.00 0.00 0.00 76 1008.1
20260902143052 59 78 0.0 3.0 0.00 0.00 0.00 76 1008.1
20260902142539 59 0 0.0 3.0 0.00 0.00 0.00 77 1008.1
20260902142039 59 78 0.0 4.0 0.00 0.00 0.00 77 1008.2
20260902141610 59 0 0.0 4.0 0.00 0.00 0.00 77 1008.1
20260902141038 59 98 1.0 3.0 0.00 0.00 0.00 77 1008.3
20260902140540 59 98 0.0 2.0 0.00 0.00 0.00 77 1008.4
20260902140050 59 98 0.0 2.0 0.00 0.00 0.00 77 1008.4
20260902135541 59 0 0.0 2.0 0.00 0.00 0.00 76 1008.4
20260902135039 59 0 0.0 2.0 0.00 0.00 0.00 77 1008.5
20260902134557 59 103 0.0 2.0 0.00 0.00 0.00 77 1008.7
20260902134038 59 103 0.0 2.0 0.00 0.00 0.00 77 1008.7
20260902133539 59 0 0.0 2.0 0.00 0.00 0.00 77 1008.7
20260902133051 59 0 0.0 2.0 0.00 0.00 0.00 77 1008.7
20260902132538 59 75 0.0 2.0 0.00 0.00 0.00 77 1008.8
20260902132038 59 163 1.0 2.0 0.00 0.00 0.00 77 1008.8
20260902131601 59 0 0.0 2.0 0.00 0.00 0.00 77 1008.9
20260902131039 59 0 0.0 2.0 0.00 0.00 0.00 77 1009.0
20260902130538 59 171 0.0 2.0 0.00 0.00 0.00 77 1009.1
20260902130057 59 0 0.0 2.0 0.00 0.00 0.00 77 1009.1
20260902125543 59 0 0.0 2.0 0.00 0.00 0.00 77 1009.1
20260902125039 59 171 0.0 2.0 0.00 0.00 0.00 77 1009.2
20260902124601 60 0 0.0 0.0 0.00 0.00 0.00 76 1009.3
20260902124040 60 0 0.0 2.0 0.00 0.00 0.00 76 1009.4
20260902123538 60 0 0.0 5.0 0.00 0.00 0.00 76 1009.4
20260902123053 60 173 0.0 5.0 0.00 0.00 0.00 76 1009.5
20260902122539 60 0 1.0 3.0 0.00 0.00 0.00 76 1009.6
20260902122038 60 138 0.0 2.0 0.00 0.00 0.00 77 1009.6
20260902121604 60 0 0.0 3.0 0.00 0.00 0.00 76 1009.7
20260902121038 59 0 0.0 3.0 0.00 0.00 0.00 76 1009.8
20260902120538 59 196 1.0 3.0 0.00 0.00 0.00 77 1009.9
20260902120059 59 196 1.0 5.0 0.00 0.00 0.00 77 1009.9
20260902115538 59 180 1.0 5.0 0.00 0.00 0.00 78 1010.0
20260902115039 59 179 1.0 5.0 0.00 0.00 0.00 78 1010.0
20260902114557 59 158 1.0 3.0 0.00 0.00 0.00 79 1010.0
20260902114036 59 154 1.0 4.0 0.00 0.00 0.00 79 1010.1
20260902113539 58 128 1.0 4.0 0.00 0.00 0.00 79 1010.1
20260902113107 58 182 0.0 0.0 0.00 0.00 0.00 81 1010.2
20260902112538 58 0 0.0 0.0 0.00 0.00 0.00 81 1010.2
20260902112042 58 0 0.0 0.0 0.00 0.00 0.00 81 1010.3
20260902111559 58 0 0.0 0.0 0.00 0.00 0.00 81 1010.4
20260902111041 58 0 0.0 0.0 0.00 0.00 0.00 81 1010.4
20260902110538 58 0 0.0 0.0 0.00 0.00 0.00 81 1010.4
20260902110059 58 0 0.0 0.0 0.00 0.00 0.00 81 1010.4
20260902105545 58 0 0.0 0.0 0.00 0.00 0.00 81 1010.4
20260902105041 58 0 0.0 1.0 0.00 0.00 0.00 81 1010.5
20260902104554 58 0 0.0 2.0 0.00 0.00 0.00 81 1010.5
20260902104039 58 0 0.0 2.0 0.00 0.00 0.00 82 1010.6
20260902103538 58 0 0.0 1.0 0.00 0.00 0.00 82 1010.7
20260902103101 58 0 0.0 0.0 0.00 0.00 0.00 82 1010.6
20260902102538 57 0 0.0 0.0 0.00 0.00 0.00 82 1010.7
20260902102042 57 0 0.0 1.0 0.00 0.00 0.00 82 1010.7
20260902101612 57 0 0.0 1.0 0.00 0.00 0.00 82 1010.7
20260902101039 57 182 0.0 0.0 0.00 0.00 0.00 82 1010.7
20260902100539 57 0 0.0 0.0 0.00 0.00 0.00 82 1010.7
20260902100055 57 0 0.0 2.0 0.00 0.00 0.00 82 1010.8
20260902095539 57 0 0.0 2.0 0.00 0.00 0.00 82 1010.7
20260902095040 57 0 0.0 1.0 0.00 0.00 0.00 83 1010.9
20260902094555 57 0 0.0 1.0 0.00 0.00 0.00 83 1010.9
20260902094039 57 0 0.0 1.0 0.00 0.00 0.00 83 1011.1
20260902093541 57 0 0.0 1.0 0.00 0.00 0.00 83 1011.2
20260902093101 57 0 0.0 0.0 0.00 0.00 0.00 82 1011.2
20260902092541 57 0 0.0 0.0 0.00 0.00 0.00 83 1011.3
20260902092039 57 0 0.0 0.0 0.00 0.00 0.00 82 1011.3
20260902091555 57 0 0.0 0.0 0.00 0.00 0.00 82 1011.5
20260902091039 57 0 0.0 1.0 0.00 0.00 0.00 82 1011.4
20260902090539 57 0 0.0 1.0 0.00 0.00 0.00 82 1011.5
20260902090058 57 0 0.0 2.0 0.00 0.00 0.00 82 1011.5
20260902085540 57 0 0.0 3.0 0.00 0.00 0.00 82 1011.5
20260902085038 57 182 0.0 3.0 0.00 0.00 0.00 82 1011.6
20260902084553 57 182 1.0 2.0 0.00 0.00 0.00 82 1011.6
20260902084040 57 182 0.0 3.0 0.00 0.00 0.00 82 1011.6
20260902083540 57 182 0.0 3.0 0.00 0.00 0.00 82 1011.5
20260902083056 57 0 0.0 3.0 0.00 0.00 0.00 82 1011.5
20260902082542 58 0 0.0 2.0 0.00 0.00 0.00 82 1011.6